Flag for Germany Weather past 2 weeks in Giessen, Hesse, Germany

Now
62 °F

Partly sunny.


Feels Like: 62 °F
Forecast: 44 / 67 °F
Wind: 8 mph from Northeast

Location: Giessen


UV Index: 3 (Moderate)

Visibility: 19 mi


Pressure: 29.62 "Hg

Humidity: 54%

Dew point: 45 °F

Location of GiessenLocation

Historic Weather in Giessen

°F

Giessen temperature yesterday

Maximum temperature yesterday: 69 °F (at 3:00 PM)
Minimum temperature yesterday: 52 °F (at 2:00 AM)
Average temperature yesterday: 59 °F

Past Weeks' High & Low Weather Summary

 TemperatureHumidityPressure
High69 °F (Apr 20, 3:00 PM)95% (Apr 16, 7:00 AM)30.46 "Hg (Apr 16, 7:00 AM)
Low30 °F (Apr 16, 7:00 AM)31% (Apr 17, 6:00 PM)29.61 "Hg (Apr 21, 3:00 PM)
Average51 °F69%30.06 "Hg
* Reported Apr 6 5:00 PM — Apr 21 5:00 PM, Giessen, Weather by CustomWeather, © 2014

Note: Actual official high and low records may vary slightly from our data, if they occured in-between our weather recording intervals... More about our weather records

Advertising

Historic Weather Conditions — Data for Previous 24 hours

 ConditionsComfort  
Time TempWeatherWind HumidityBarometerVisibility
5:00 PM
Apr 21
62 °FScattered clouds.8 mph60%29.61 "Hg11 mi
4:00 PM62 °FDrizzle. Overcast.3 mph60%29.62 "Hg19 mi
3:00 PM64 °FOvercast.5 mph55%29.61 "Hg14 mi
2:00 PM60 °FOvercast.3 mph61%29.62 "Hg16 mi
1:00 PM62 °FScattered clouds.3 mph56%29.63 "Hg18 mi
12:00 PM60 °FOvercast.3 mph60%29.65 "Hg12 mi
11:00 AM56 °FOvercast.5 mph70%29.66 "Hg12 mi
10:00 AM53 °FOvercast.6 mph75%29.67 "Hg10 mi
9:00 AM51 °FScattered clouds.3 mph80%29.68 "Hg9 mi
8:00 AM46 °FOvercast.2 mph89%29.70 "Hg10 mi
7:00 AM44 °FOvercast.3 mph92%29.70 "Hg9 mi
6:00 AM43 °FPassing clouds.2 mph91%29.70 "Hg9 mi
5:00 AM43 °FClear.3 mph90%29.71 "Hg9 mi
4:00 AM46 °FClear.2 mph85%29.72 "Hg14 mi
3:00 AM48 °FClear.2 mph80%29.73 "Hg15 mi
2:00 AM49 °FClear.3 mph80%29.75 "Hg18 mi
1:00 AM50 °FClear.3 mph78%29.76 "Hg19 mi
12:00 AM53 °FClear.5 mph69%29.75 "Hg28 mi
11:00 PM
Apr 20
53 °FClear.5 mph67%29.75 "Hg34 mi
10:00 PM57 °FOvercast.3 mph55%29.74 "Hg43 mi
9:00 PM57 °FPassing clouds.5 mph57%29.73 "Hg43 mi
8:00 PM62 °FOvercast.7 mph46%29.70 "Hg43 mi
7:00 PM65 °FPassing clouds.8 mph38%29.68 "Hg22 mi
6:00 PM68 °FScattered clouds.6 mph32%29.68 "Hg22 mi
Weather by CustomWeather, © 2014

See weather overview